Weather History for Patuxent River, MD

Change the Weather History Date:

Saturday, May 11, 2013

  Actual Average Record
Temperature  
Mean Temperature 72 °F -  
Max Temperature 80 °F 72 °F 87 °F (2001)
Min Temperature 64 °F 54 °F 43 °F (1977)
Cooling Degree Days 7    
Growing Degree Days 22 (Base 50)    
Moisture  
Dew Point 62 °F    
Average Humidity 74    
Maximum Humidity 94    
Minimum Humidity 56    
Precipitation  
Precipitation 0.13 in - - ()
Sea Level Pressure  
Sea Level Pressure 29.82 in    
Wind  
Wind Speed 7 mph (SSW)    
Max Wind Speed 15 mph    
Max Gust Speed 30 mph    
Visibility 10 miles    
Events Rain , Thunderstorm    
Averages and records for this station are not official NWS values.
T = Trace of Precipitation, MM = Missing Value Source: NWS Daily Summary

Daily Weather History Graph

Daily Weather History Graph

Search for Another Location

Airport:

Trip Planner

Search our weather history database for the weather conditions in past years. The results will help you decide how hot, cold, wet, or windy it might be!

Date:

Astronomy

May. 11, 2013 Rise Set
Actual Time 5:58 AM EDT 8:06 PM EDT
Civil Twilight 5:28 AM EDT 8:35 PM EDT
Nautical Twilight 4:52 AM EDT 9:11 PM EDT
Astronomical Twilight 4:13 AM EDT 9:51 PM EDT
Moon 7:04 AM EDT (5/11) 9:44 PM EDT (5/11)
Length of Visible Light 15h 07m
Length of Day
14h 08m
Waxing Crescent, 3% of the Moon is Illuminated
May 11
Waxing Crescent
May 18
First Quarter
May 25
Full
May 31
Last Quarter
Jun 8
New

Hourly Weather History & Observations

Time (EDT) Temp. Heat Index Dew Point Humidity Pressure Visibility Wind Dir Wind Speed Gust Speed Precip Events Conditions
12:33 AM 69.8 °F - 62.6 °F 78% 29.91 in 4.0 mi SW 6.9 mph - 0.08 in Rain , Thunderstorm Light Thunderstorms and Rain
12:52 AM 68.0 °F - 63.0 °F 84% 29.92 in 10.0 mi SSW 3.5 mph - 0.09 in Rain , Thunderstorm Light Thunderstorms and Rain
1:19 AM 68.0 °F - 62.6 °F 83% 29.92 in 10.0 mi North - - 0.00 in   Mostly Cloudy
1:52 AM 66.0 °F - 62.1 °F 87% 29.93 in 10.0 mi WNW 8.1 mph - 0.00 in Rain Light Rain
2:38 AM 64.4 °F - 62.6 °F 94% 29.90 in 10.0 mi Calm Calm - 0.00 in Thunderstorm Thunderstorm
2:52 AM 64.9 °F - 62.1 °F 90% 29.90 in 10.0 mi South 8.1 mph - 0.01 in Rain Light Rain
3:52 AM 66.0 °F - 62.1 °F 87% 29.89 in 10.0 mi SE 5.8 mph - 0.00 in Rain Light Rain
4:52 AM 66.0 °F - 62.1 °F 87% 29.85 in 10.0 mi SE 10.4 mph - 0.01 in   Overcast
5:40 AM 66.2 °F - 62.6 °F 88% 29.86 in 10.0 mi West 3.5 mph - 0.00 in Rain , Thunderstorm Light Thunderstorms and Rain
5:52 AM 66.0 °F - 62.1 °F 87% 29.86 in 10.0 mi SSE 3.5 mph - 0.00 in Rain Light Rain
6:02 AM 66.2 °F - 62.6 °F 88% 29.85 in 10.0 mi SSE 4.6 mph - 0.00 in   Overcast
6:52 AM 68.0 °F - 62.1 °F 81% 29.85 in 10.0 mi SSE 6.9 mph - 0.00 in   Overcast
7:52 AM 68.0 °F - 62.1 °F 81% 29.85 in 10.0 mi South 5.8 mph - N/A   Overcast
8:38 AM 69.8 °F - 62.6 °F 78% 29.85 in 10.0 mi South 5.8 mph - N/A Thunderstorm Thunderstorm
8:52 AM 70.0 °F - 62.1 °F 76% 29.85 in 10.0 mi SSW 9.2 mph - N/A Thunderstorm Thunderstorm
9:18 AM 69.8 °F - 62.6 °F 78% 29.84 in 10.0 mi South 5.8 mph - N/A   Mostly Cloudy
9:52 AM 73.0 °F - 63.0 °F 71% 29.84 in 10.0 mi SSW 9.2 mph - N/A   Mostly Cloudy
10:52 AM 75.0 °F - 64.0 °F 69% 29.83 in 10.0 mi SSW 9.2 mph - N/A   Mostly Cloudy
11:52 AM 75.9 °F - 64.0 °F 67% 29.81 in 10.0 mi South 6.9 mph 16.1 mph N/A   Mostly Cloudy
12:52 PM 79.0 °F - 64.9 °F 62% 29.79 in 10.0 mi South 8.1 mph 17.3 mph N/A   Mostly Cloudy
1:52 PM 80.1 °F 81.5 °F 63.0 °F 56% 29.77 in 10.0 mi SSW 11.5 mph 20.7 mph N/A   Mostly Cloudy
2:52 PM 78.1 °F - 61.0 °F 56% 29.75 in 10.0 mi SW 6.9 mph 17.3 mph N/A   Mostly Cloudy
3:44 PM 75.2 °F - 60.8 °F 61% 29.75 in 10.0 mi WSW 15.0 mph 29.9 mph 0.00 in Rain Light Rain
3:52 PM 75.0 °F - 62.1 °F 64% 29.75 in 10.0 mi WSW 10.4 mph 24.2 mph 0.00 in Rain Light Rain
4:03 PM 77.0 °F - 64.4 °F 65% 29.74 in 10.0 mi West 9.2 mph - 0.00 in   Mostly Cloudy
4:52 PM 77.0 °F - 63.0 °F 62% 29.74 in 10.0 mi SW 10.4 mph 17.3 mph 0.00 in   Mostly Cloudy
5:52 PM 79.0 °F - 62.1 °F 56% 29.73 in 10.0 mi SW 11.5 mph 17.3 mph N/A   Mostly Cloudy
6:52 PM 77.0 °F - 62.1 °F 60% 29.73 in 10.0 mi SSW 6.9 mph - N/A   Partly Cloudy
7:52 PM 75.0 °F - 60.1 °F 60% 29.74 in 10.0 mi South 5.8 mph - N/A   Mostly Cloudy
8:52 PM 72.0 °F - 60.1 °F 66% 29.74 in 10.0 mi SSW 4.6 mph - N/A   Mostly Cloudy
9:52 PM 70.0 °F - 59.0 °F 68% 29.76 in 10.0 mi North 8.1 mph - N/A   Overcast
10:52 PM 68.0 °F - 57.9 °F 70% 29.77 in 10.0 mi NNW 6.9 mph - N/A   Mostly Cloudy
11:41 PM 66.2 °F - 60.8 °F 83% 29.76 in 10.0 mi North 5.8 mph - 0.01 in Rain , Thunderstorm Light Thunderstorms and Rain
11:52 PM 66.0 °F - 61.0 °F 84% 29.78 in 9.0 mi NNW 8.1 mph - 0.02 in Rain , Thunderstorm Light Thunderstorms and Rain